Tracking 32142 objects as of 13-Nov-2025
HD Live streaming from Space Station
objects crossing your sky now

STARLINK-34796

Track STARLINK-34796 now!
10-day predictions
STARLINK-34796 is classified as:


NORAD ID: 65205
Int'l Code: 2025-176H
Perigee: 481.8 km
Apogee: 482.5 km
Inclination: 53.2 °
Period: 94.1 minutes
Semi major axis: 6853 km
RCS: Unknown
Launch date: August 14, 2025
Source: United States (US)
Launch site: AIR FORCE EASTERN TEST RANGE (AFETR)
Your satellite tracking list
Your tracking list is empty




NASA's NSSDC Master Catalog

Two Line Element Set (TLE):
1 65205U 25176H   25316.76066610  .00066537  00000-0  22340-2 0  9998
2 65205  53.1587 336.1706 0000475  48.5884 311.5158 15.30266483 15219
Source of the keplerian elements: AFSPC